Terminal Aerodrome Forecast
Issued by NWS

Home | Current Version | Previous Version | Text Only | Print | Product List | Glossary On
Versions: 1 2 3 4 5 6 7 8 9 10 11 12 13 14 15 16 17 18 19 20 21 22 23 24 25 26 27 28
000
FTUS41 KOKX 280500 RRA
TAFGON
TAF
KGON 280543Z 2806/2906 VRB03KT P6SM SCT050 BKN120
     FM280800 35008KT P6SM FEW050
     FM281300 34012KT P6SM SKC
     FM281800 30012KT P6SM FEW050
     FM282300 32008KT P6SM SKC
     FM290300 34006KT P6SM SKC=

USA.gov is the U.S. government's official web portal to all federal, state and local government web resources and services.